Location: Catstown
(52.4386°N, 7.2633°W)
Time: 22:26:49
(UTC+00:00)

COSMOS 2406 - Pass Details

Date: 18 September 2020
Orbit: 844 x 863 km, 71.0° (Epoch: 30 October)

Event Time Altitude Azimuth Distance (km) Brightness Sun altitude
Rises 22:29:05 0° 324° (NW) 3,415 7.5 -31.1°
Reaches altitude 10° 22:31:43 10° 316° (NW) 2,476 6.5 -31.3°
Enters shadow 22:36:23 34° 261° (W) 1,373 4.4 -31.7°
